EW3707 Weather Reports


time (UTC)temp
F
wind
direction
speed
knots
gust
knots
rain 1hr
in
rain 24hr
in
rain mn
in
humidity
%
barometer
mb
20260906180016 80 68 4.3 9.6 0.00 0.00 0.00 53 1019.9
20260906175016 80 90 2.6 8.7 0.00 0.00 0.00 53 1020.1
20260906174016 80 113 0.9 6.1 0.00 0.00 0.00 53 1020.1
20260906173017 81 135 1.7 7.0 0.00 0.00 0.00 53 1020.0
20260906172016 81 135 0.9 5.2 0.00 0.00 0.00 55 1020.3
20260906171016 79 90 3.5 7.8 0.00 0.00 0.00 57 1020.0
20260906170017 79 113 1.7 5.2 0.00 0.00 0.00 56 1020.3
20260906165016 79 90 1.7 7.8 0.00 0.00 0.00 59 1020.5
20260906164016 80 90 0.9 4.3 0.00 0.00 0.00 58 1020.4
20260906163016 79 135 1.7 6.1 0.00 0.00 0.00 58 1020.6
20260906162016 77 203 0.9 3.5 0.00 0.00 0.00 64 1020.5
20260906161057 77 90 0.9 4.3 0.00 0.00 0.00 65 1020.7
20260906160017 76 135 0.9 4.3 0.00 0.00 0.00 65 1020.7
20260906155016 76 113 1.7 4.3 0.00 0.00 0.00 69 1020.8
20260906154036 76 90 0.9 3.5 0.00 0.00 0.00 72 1020.7
20260906153017 75 0.0 2.6 0.00 0.00 0.00 73 1020.6
20260906152016 74 90 2.6 7.0 0.00 0.00 0.00 74 1020.5
20260906151016 74 90 0.9 5.2 0.00 0.00 0.00 75 1020.7
20260906150036 74 90 0.9 3.5 0.00 0.00 0.00 76 1020.6
20260906145017 73 90 2.6 5.2 0.00 0.00 0.00 76 1020.6
20260906144016 73 180 0.9 4.3 0.00 0.00 0.00 76 1020.6
20260906143036 71 90 1.7 7.0 0.00 0.00 0.00 75 1020.8
20260906142017 71 90 1.7 5.2 0.00 0.00 0.00 74 1020.6
20260906141016 71 90 1.7 4.3 0.00 0.00 0.00 73 1020.7
20260906140016 71 90 0.9 3.5 0.00 0.00 0.00 68 1020.7
20260906135016 70 135 0.9 2.6 0.00 0.00 0.00 54 1020.6
20260906134016 69 90 0.9 2.6 0.00 0.00 0.00 43 1020.7
20260906133036 69 113 0.9 5.2 0.00 0.00 0.00 50 1020.6
20260906132016 69 0.0 2.6 0.00 0.00 0.00 44 1020.5
20260906131017 69 90 1.7 5.2 0.00 0.00 0.00 33 1020.2
20260906130017 68 0.0 2.6 0.00 0.00 0.00 1 1020.0
20260906125016 67 0.0 0.0 0.00 0.00 0.00 1 1020.1
20260906124036 66 0.0 0.9 0.00 0.00 0.00 1 1020.2
20260906123016 66 0.0 1.7 0.00 0.00 0.00 1 1019.9
20260906122036 66 0.0 0.9 0.00 0.00 0.00 1 1019.9
20260906121016 66 113 0.9 4.3 0.00 0.00 0.00 1 1019.8
20260906120016 66 113 0.9 2.6 0.00 0.00 0.00 1 1019.8
20260906115016 66 113 0.9 4.3 0.00 0.00 0.00 1 1019.9
20260906114056 66 90 0.9 3.5 0.00 0.00 0.00 1 1019.8
20260906113016 66 90 0.9 3.5 0.00 0.00 0.00 1 1019.8
20260906112036 66 0.0 0.9 0.00 0.00 0.00 1 1019.8
20260906111016 66 0.0 0.0 0.00 0.00 0.00 1 1019.6
20260906110016 66 0.0 0.9 0.00 0.00 0.00 1 1019.7
20260906105016 66 0.0 0.0 0.00 0.00 0.00 1 1019.8
20260906104016 66 0.0 0.9 0.00 0.00 0.00 1 1019.7
20260906103016 66 0.0 0.0 0.00 0.00 0.00 1 1019.4
20260906102016 66 0.0 0.9 0.00 0.00 0.00 1 1019.2
20260906101036 66 0.0 0.0 0.00 0.00 0.00 1 1019.0
20260906100016 66 0.0 0.0 0.00 0.00 0.00 1 1019.1
20260906095016 66 0.0 0.0 0.00 0.00 0.00 1 1018.9
20260906094036 66 0.0 0.0 0.00 0.00 0.00 1 1018.9
20260906093016 67 0.0 0.0 0.00 0.00 0.00 1 1018.9
20260906092016 67 0.0 0.0 0.00 0.00 0.00 8 1019.0
20260906091016 67 0.0 0.0 0.00 0.00 0.00 15 1018.8
20260906090016 68 0.0 1.7 0.00 0.00 0.00 17 1018.8
20260906085016 68 0.0 2.6 0.00 0.00 0.00 17 1018.6
20260906084017 68 113 0.9 2.6 0.00 0.00 0.00 17 1018.4
20260906083016 68 0.0 1.7 0.00 0.00 0.00 21 1018.6
20260906082016 68 0.0 0.9 0.00 0.00 0.00 26 1018.7
20260906081016 68 113 0.9 4.3 0.00 0.00 0.00 26 1018.7
20260906080016 69 90 0.9 2.6 0.00 0.00 0.00 26 1018.8
20260906075016 69 0.0 0.9 0.00 0.00 0.00 27 1018.9
20260906074016 69 0.0 0.9 0.00 0.00 0.00 28 1018.9
20260906073016 69 0.0 1.7 0.00 0.00 0.00 30 1018.9
20260906072016 69 0.0 0.9 0.00 0.00 0.00 27 1018.9
20260906071016 69 0.0 0.9 0.00 0.00 0.00 22 1018.8
20260906070036 69 0.0 0.0 0.00 0.00 0.00 23 1019.0
20260906065016 69 0.0 0.9 0.00 0.00 0.00 24 1019.1
20260906064016 69 0.0 0.0 0.00 0.00 0.00 28 1019.2
20260906063016 69 0.0 1.7 0.00 0.00 0.00 31 1019.0
20260906062016 69 0.0 0.9 0.00 0.00 0.00 35 1019.1
20260906061036 69 0.0 0.0 0.00 0.00 0.00 35 1019.1
20260906060016 70 0.0 0.0 0.00 0.00 0.00 39 1019.1
20260906055016 70 0.0 0.0 0.00 0.00 0.00 45 1019.1
20260906054016 70 0.0 0.9 0.00 0.00 0.00 43 1019.1
20260906053016 70 0.0 0.0 0.00 0.00 0.00 48 1019.0
20260906052016 70 0.0 1.7 0.00 0.00 0.00 46 1019.0
20260906051016 70 0.0 0.0 0.00 0.00 0.00 45 1019.0
20260906050016 70 0.0 0.9 0.00 0.00 0.00 41 1018.8
20260906045017 69 0.0 0.0 0.00 0.00 0.00 36 1018.8
20260906044017 69 0.0 0.0 0.00 0.00 0.00 35 1018.7
20260906043017 69 0.0 0.0 0.00 0.00 0.00 26 1018.5
20260906042017 69 0.0 0.9 0.00 0.00 0.00 18 1018.5
20260906041016 69 0.0 0.0 0.00 0.00 0.00 6 1018.5
20260906040017 69 0.0 0.9 0.00 0.00 0.00 1 1018.4
20260906035017 68 0.0 0.0 0.00 0.00 0.00 1 1018.0
20260906034017 69 0.0 0.0 0.00 0.00 0.00 1 1018.0
20260906033017 69 0.0 0.0 0.00 0.00 0.00 1 1018.2
20260906032017 69 0.0 0.0 0.00 0.00 0.00 4 1018.2
20260906031016 69 0.0 0.0 0.00 0.00 0.00 16 1018.1
20260906030017 69 0.0 0.0 0.00 0.00 0.00 26 1018.0
20260906025016 70 0.0 0.0 0.00 0.00 0.00 30 1017.8
20260906024017 70 0.0 0.0 0.00 0.00 0.00 38 1017.6
20260906023017 71 0.0 0.0 0.00 0.00 0.00 45 1017.4
20260906022016 71 0.0 0.0 0.00 0.00 0.00 50 1017.2
20260906021017 72 0.0 0.0 0.00 0.00 0.00 59 1017.2
20260906020017 72 0.0 0.0 0.00 0.00 0.00 65 1017.0
20260906015056 73 0.0 0.0 0.00 0.00 0.00 71 1016.8
20260906014016 74 0.0 0.0 0.00 0.00 0.00 74 1016.4
20260906013017 75 0.0 0.0 0.00 0.00 0.00 75 1016.3
20260906012017 75 0.0 0.9 0.00 0.00 0.00 75 1016.3
20260906011017 75 0.0 1.7 0.00 0.00 0.00 75 1016.1
20260906010017 76 0.0 0.9 0.00 0.00 0.00 75 1016.2
20260906005016 76 0.0 0.9 0.00 0.00 0.00 75 1016.1
20260906004016 77 0.0 0.9 0.00 0.00 0.00 74 1016.1
20260906003016 78 0.0 0.9 0.00 0.00 0.00 73 1016.2
20260906002016 78 90 1.7 8.7 0.00 0.00 0.00 72 1016.1
20260906001017 79 90 0.9 5.2 0.00 0.00 0.00 71 1016.0
20260906000016 79 68 0.9 3.5 0.00 0.00 0.00 71 1016.1
20260905235016 80 90 1.7 7.8 0.00 0.00 0.00 69 1016.0
20260905234036 81 90 1.7 5.2 0.00 0.00 0.00 68 1016.1
20260905233017 82 90 0.9 4.3 0.00 0.00 0.00 68 1016.2
20260905232017 82 90 0.9 4.3 0.00 0.00 0.00 67 1016.2
20260905231016 82 45 1.7 6.1 0.00 0.00 0.00 66 1016.0
20260905230017 83 0.0 1.7 0.00 0.00 0.00 66 1016.2
20260905225016 83 90 1.7 6.1 0.00 0.00 0.00 65 1016.1
20260905224016 83 45 0.9 5.2 0.00 0.00 0.00 63 1016.1
20260905223017 83 0.0 2.6 0.00 0.00 0.00 64 1016.2
20260905222036 83 0.0 0.9 0.00 0.00 0.00 64 1016.3
20260905221016 83 0.0 2.6 0.00 0.00 0.00 65 1016.5
20260905220016 82 0.0 1.7 0.00 0.00 0.00 66 1016.5
20260905215016 82 0.0 1.7 0.00 0.00 0.00 65 1016.6
20260905214017 83 90 0.9 3.5 0.00 0.00 0.00 64 1016.7
20260905213016 83 0.0 0.9 0.00 0.00 0.00 64 1016.8
20260905212017 84 0.0 2.6 0.00 0.00 0.00 63 1016.9
20260905211017 84 0.0 0.9 0.00 0.00 0.00 64 1016.8
20260905210037 82 0.0 0.9 0.00 0.00 0.00 67 1016.9
20260905205016 82 0.0 0.9 0.00 0.00 0.00 67 1017.0
20260905204017 83 225 0.9 4.3 0.00 0.00 0.00 66 1017.1
20260905203036 82 0 0.9 2.6 0.00 0.00 0.00 67 1017.1
20260905202016 82 0.0 1.7 0.00 0.00 0.00 67 1017.2
20260905201016 82 0.0 0.9 0.00 0.00 0.00 68 1017.5
20260905200016 82 0.0 2.6 0.00 0.00 0.00 66 1017.4
20260905195016 83 248 0.9 2.6 0.00 0.00 0.00 64 1017.4
20260905194016 82 0.0 0.9 0.00 0.00 0.00 66 1017.4
20260905193016 83 0.0 0.9 0.00 0.00 0.00 65 1017.3
20260905192016 82 0.0 2.6 0.00 0.00 0.00 67 1017.3
20260905191016 82 0.0 1.7 0.00 0.00 0.00 69 1017.3
20260905190016 80 0.0 1.7 0.00 0.00 0.00 72 1017.2
20260905185017 79 0.0 0.9 0.00 0.00 0.00 72 1017.4
20260905184016 79 0.0 1.7 0.00 0.00 0.00 73 1017.4
20260905183016 79 113 0.9 2.6 0.00 0.00 0.00 73 1017.5
20260905182016 80 0.0 0.0 0.00 0.00 0.00 72 1017.7
20260905181016 80 0.0 0.0 0.00 0.00 0.00 72 1017.7